Location: Ailly
(50.0793°N, 1.9944°E)
Time: 10:44:10
(UTC+00:00)

Cosmos 2082 Rocket - Pass Details

Date: 15 January 2026
Orbit: 831 x 853 km, 71.0° (Epoch: 15 February)

Event Time Altitude Azimuth Distance (km) Brightness Sun altitude
Exits shadow 04:54:32 21° 353° (N) 1,823 3.8 -26.6°
Maximum altitude 04:57:49 39° 50° (NE) 1,251 3.4 -26.1°
Drops below altitude 10° 05:03:07 10° 119° (ESE) 2,471 5.5 -25.3°
Sets 05:05:44 0° 127° (SE) 3,406 6.2 -24.8°
